Time,TemperatureF,DewpointF,PressureIn,WindDirection,WindDirectionDegrees,WindSpeedMPH,WindSpeedGustMPH,Humidity,HourlyPrecipIn,Conditions,Clouds,dailyrainin,SoftwareType,DateUTC
2013-09-16 00:01:00,53.2,50.4,30.07,SW,218,2.7,3.6,90,0.04,,-RA,0.00,VWS V14.01,2013-09-16 04:01:00,
2013-09-16 00:02:00,53.2,50.4,30.07,SW,217,2.7,3.6,90,0.04,,-RA,0.00,VWS V14.01,2013-09-16 04:02:00,
2013-09-16 00:03:00,53.2,50.4,30.07,SW,234,2.7,3.6,90,0.04,,-RA,0.00,VWS V14.01,2013-09-16 04:03:00,
2013-09-16 00:07:00,53.1,50.5,30.07,SW,234,0.0,0.0,91,0.04,,-RA,0.00,VWS V14.01,2013-09-16 04:07:00,
2013-09-16 00:12:00,53.1,50.5,30.07,SSW,208,3.6,4.0,91,0.04,,-RA,0.00,VWS V14.01,2013-09-16 04:12:00,
2013-09-16 00:14:00,53.2,50.7,30.07,SW,214,3.1,5.4,91,0.04,,-RA,0.00,VWS V14.01,2013-09-16 04:14:00,
2013-09-16 00:19:00,53.2,51.0,30.07,SW,218,4.0,5.8,92,0.04,,-RA,0.00,VWS V14.01,2013-09-16 04:19:00,
2013-09-16 00:24:00,53.2,51.0,30.07,SW,217,0.0,5.4,92,0.00,,-RA,0.00,VWS V14.01,2013-09-16 04:24:00,
2013-09-16 00:30:00,53.2,51.0,30.07,SW,214,4.0,4.9,92,0.00,,-RA,0.00,VWS V14.01,2013-09-16 04:30:00,
2013-09-16 00:35:00,53.1,50.8,30.07,SW,215,3.1,4.9,92,0.00,,-RA,0.00,VWS V14.01,2013-09-16 04:35:00,
2013-09-16 00:40:00,53.1,51.1,30.07,SW,217,2.7,3.6,93,0.00,,-RA,0.00,VWS V14.01,2013-09-16 04:40:00,
2013-09-16 00:45:00,53.1,51.1,30.07,SW,226,2.7,4.0,93,0.00,,-RA,0.00,VWS V14.01,2013-09-16 04:45:00,
2013-09-16 00:50:00,53.1,51.4,30.07,SW,217,3.1,3.6,94,0.00,,-RA,0.00,VWS V14.01,2013-09-16 04:50:00,
2013-09-16 00:55:00,53.1,51.4,30.07,SW,220,2.2,3.1,94,0.00,,-RA,0.00,VWS V14.01,2013-09-16 04:55:00,
2013-09-16 01:00:00,53.1,51.4,30.04,SW,217,3.6,3.6,94,0.00,,-RA,0.00,VWS V14.01,2013-09-16 05:00:00,
2013-09-16 01:05:00,53.1,51.4,30.04,SW,220,0.0,3.6,94,0.00,,-RA,0.00,VWS V14.01,2013-09-16 05:05:00,
2013-09-16 01:10:00,52.9,51.2,30.04,SW,234,0.0,3.6,94,0.00,,-RA,0.00,VWS V14.01,2013-09-16 05:10:00,
2013-09-16 01:15:00,52.9,51.2,30.04,SW,224,0.0,0.0,94,0.00,,-RA,0.00,VWS V14.01,2013-09-16 05:15:00,
2013-09-16 01:20:00,52.7,51.0,30.04,SW,224,0.0,2.7,94,0.00,,-RA,0.00,VWS V14.01,2013-09-16 05:20:00,
2013-09-16 01:25:00,52.9,51.2,30.04,SW,214,0.0,2.2,94,0.00,,-RA,0.00,VWS V14.01,2013-09-16 05:25:00,
2013-09-16 01:30:00,52.9,51.5,30.04,SSW,212,0.0,0.0,95,0.00,,-RA,0.00,VWS V14.01,2013-09-16 05:30:00,
2013-09-16 01:35:00,52.9,51.5,30.04,SW,214,0.0,3.6,95,0.00,,-RA,0.00,VWS V14.01,2013-09-16 05:35:00,
2013-09-16 01:40:00,52.9,51.5,30.04,SW,224,3.6,3.6,95,0.00,,-RA,0.00,VWS V14.01,2013-09-16 05:40:00,
2013-09-16 01:45:00,52.9,51.8,30.04,SW,214,3.6,4.0,96,0.00,,-RA,0.00,VWS V14.01,2013-09-16 05:45:00,
2013-09-16 01:50:00,52.9,51.8,30.04,SSW,195,0.0,3.6,96,0.00,,-RA,0.00,VWS V14.01,2013-09-16 05:50:00,
2013-09-16 01:55:00,52.9,51.8,30.04,SW,226,0.0,4.0,96,0.00,,-RA,0.00,VWS V14.01,2013-09-16 05:55:00,
2013-09-16 02:00:00,52.7,51.6,30.04,SSW,200,3.1,4.0,96,0.00,,-RA,0.00,VWS V14.01,2013-09-16 06:00:00,
2013-09-16 02:05:00,52.7,51.6,30.04,SW,224,3.1,4.0,96,0.00,,OVC100,0.00,VWS V14.01,2013-09-16 06:05:00,
2013-09-16 02:10:00,52.7,51.6,30.04,SSW,211,2.2,4.0,96,0.00,,OVC100,0.00,VWS V14.01,2013-09-16 06:10:00,
2013-09-16 02:15:00,52.7,51.6,30.04,SW,214,0.0,2.2,96,0.00,,OVC100,0.00,VWS V14.01,2013-09-16 06:15:00,
2013-09-16 02:20:00,52.7,51.3,30.04,WSW,247,0.0,0.0,95,0.00,,OVC100,0.00,VWS V14.01,2013-09-16 06:20:00,
2013-09-16 02:25:00,52.5,51.1,30.04,SW,217,0.0,2.7,95,0.00,,OVC100,0.00,VWS V14.01,2013-09-16 06:25:00,
2013-09-16 02:30:00,52.5,51.1,30.04,SW,222,2.2,2.7,95,0.00,,OVC100,0.00,VWS V14.01,2013-09-16 06:30:00,
2013-09-16 02:35:00,52.5,51.1,30.04,SW,219,0.0,2.2,95,0.00,,OVC100,0.00,VWS V14.01,2013-09-16 06:35:00,
2013-09-16 02:40:00,52.7,51.3,30.04,SSW,208,0.0,0.0,95,0.00,,OVC100,0.00,VWS V14.01,2013-09-16 06:40:00,
2013-09-16 02:46:00,52.7,51.3,30.04,SSW,213,0.0,3.1,95,0.00,,OVC100,0.00,VWS V14.01,2013-09-16 06:46:00,
2013-09-16 02:51:00,52.7,51.3,30.04,SSW,208,2.2,3.1,95,0.00,,OVC100,0.00,VWS V14.01,2013-09-16 06:51:00,
2013-09-16 02:56:00,52.5,51.1,30.04,WSW,241,0.0,0.0,95,0.00,,OVC100,0.00,VWS V14.01,2013-09-16 06:56:00,
2013-09-16 03:01:00,52.5,51.1,30.04,SW,217,0.0,0.0,95,0.00,,OVC110,0.00,VWS V14.01,2013-09-16 07:01:00,
2013-09-16 03:06:00,52.5,51.1,30.04,SW,218,0.0,0.0,95,0.00,,OVC110,0.00,VWS V14.01,2013-09-16 07:06:00,
2013-09-16 03:11:00,52.5,51.1,30.04,SW,217,0.0,0.0,95,0.00,,OVC110,0.00,VWS V14.01,2013-09-16 07:11:00,
2013-09-16 03:16:00,52.5,51.1,30.04,SSW,211,2.7,3.6,95,0.00,,OVC110,0.00,VWS V14.01,2013-09-16 07:16:00,
2013-09-16 03:21:00,52.5,51.1,30.04,SW,222,2.7,3.6,95,0.00,,OVC110,0.00,VWS V14.01,2013-09-16 07:21:00,
2013-09-16 03:26:00,52.5,51.1,30.04,SSW,199,2.2,2.7,95,0.00,,OVC110,0.00,VWS V14.01,2013-09-16 07:26:00,
2013-09-16 03:31:00,52.5,51.1,30.04,WSW,238,2.2,4.9,95,0.00,,OVC110,0.00,VWS V14.01,2013-09-16 07:31:00,
2013-09-16 03:36:00,52.5,51.1,30.04,SW,216,0.0,4.9,95,0.00,,OVC110,0.00,VWS V14.01,2013-09-16 07:36:00,
2013-09-16 03:41:00,52.3,51.2,30.04,SW,224,3.6,3.6,96,0.00,,OVC110,0.00,VWS V14.01,2013-09-16 07:41:00,
2013-09-16 03:46:00,52.5,51.4,30.04,SW,219,3.6,3.6,96,0.00,,OVC110,0.00,VWS V14.01,2013-09-16 07:46:00,
2013-09-16 03:51:00,52.3,51.2,30.04,SSW,203,2.7,3.1,96,0.00,,OVC110,0.00,VWS V14.01,2013-09-16 07:51:00,
2013-09-16 03:56:00,52.3,51.2,30.04,WSW,241,0.0,3.6,96,0.00,,OVC110,0.00,VWS V14.01,2013-09-16 07:56:00,
2013-09-16 04:01:00,52.2,51.1,30.04,WSW,243,0.0,0.0,96,0.00,,OVC100,0.00,VWS V14.01,2013-09-16 08:01:00,
2013-09-16 04:06:00,52.3,51.2,30.04,SW,223,0.0,0.0,96,0.00,,OVC100,0.00,VWS V14.01,2013-09-16 08:06:00,
2013-09-16 04:11:00,52.3,51.2,30.04,SW,226,2.7,2.7,96,0.00,,OVC100,0.00,VWS V14.01,2013-09-16 08:11:00,
2013-09-16 04:16:00,52.3,51.2,30.04,SW,227,0.0,3.6,96,0.00,,OVC100,0.00,VWS V14.01,2013-09-16 08:16:00,
2013-09-16 04:21:00,52.3,51.2,30.04,SW,220,2.2,2.2,96,0.00,,OVC100,0.00,VWS V14.01,2013-09-16 08:21:00,
2013-09-16 04:26:00,52.2,50.8,30.04,SW,217,0.0,2.2,95,0.00,,OVC100,0.00,VWS V14.01,2013-09-16 08:26:00,
2013-09-16 04:31:00,52.2,50.8,30.04,SW,236,0.0,0.0,95,0.00,,OVC100,0.00,VWS V14.01,2013-09-16 08:31:00,
2013-09-16 04:36:00,52.0,50.6,30.04,SW,236,0.0,0.0,95,0.00,,OVC100,0.00,VWS V14.01,2013-09-16 08:36:00,
2013-09-16 04:41:00,51.8,50.4,30.04,SW,236,0.0,0.0,95,0.00,,OVC100,0.00,VWS V14.01,2013-09-16 08:41:00,
2013-09-16 04:46:00,51.8,50.4,30.04,SW,236,0.0,0.0,95,0.00,,OVC100,0.00,VWS V14.01,2013-09-16 08:46:00,
2013-09-16 04:51:00,51.6,50.2,30.04,SW,236,0.0,0.0,95,0.00,,OVC100,0.00,VWS V14.01,2013-09-16 08:51:00,
2013-09-16 04:56:00,51.4,50.1,30.04,SW,236,0.0,0.0,95,0.00,,OVC100,0.00,VWS V14.01,2013-09-16 08:56:00,
2013-09-16 05:01:00,51.3,49.6,30.04,SW,236,0.0,0.0,94,0.00,,OVC110,0.00,VWS V14.01,2013-09-16 09:01:00,
2013-09-16 05:06:00,51.1,49.4,30.04,SW,236,0.0,0.0,94,0.00,,OVC110,0.00,VWS V14.01,2013-09-16 09:06:00,
2013-09-16 05:11:00,50.9,49.2,30.04,SW,236,0.0,0.0,94,0.00,,OVC110,0.00,VWS V14.01,2013-09-16 09:11:00,
2013-09-16 05:16:00,50.5,48.6,30.04,SW,236,0.0,0.0,93,0.00,,OVC110,0.00,VWS V14.01,2013-09-16 09:16:00,
2013-09-16 05:21:00,50.4,48.4,30.04,SW,236,0.0,2.2,93,0.00,,OVC110,0.00,VWS V14.01,2013-09-16 09:21:00,
2013-09-16 05:26:00,50.4,48.1,30.04,SW,236,0.0,0.0,92,0.00,,OVC110,0.00,VWS V14.01,2013-09-16 09:26:00,
2013-09-16 05:31:00,50.2,48.0,30.04,SW,236,0.0,0.0,92,0.00,,OVC110,0.00,VWS V14.01,2013-09-16 09:31:00,
2013-09-16 05:37:00,50.2,48.0,30.04,SW,236,0.0,0.0,92,0.00,,OVC110,0.00,VWS V14.01,2013-09-16 09:37:00,
2013-09-16 05:42:00,50.2,48.2,30.04,SW,236,0.0,0.0,93,0.00,,OVC110,0.00,VWS V14.01,2013-09-16 09:42:00,
2013-09-16 05:47:00,50.2,48.2,30.04,SW,236,0.0,0.0,93,0.00,,OVC110,0.00,VWS V14.01,2013-09-16 09:47:00,
2013-09-16 05:52:00,50.4,48.7,30.04,SW,236,2.2,2.2,94,0.00,,OVC110,0.00,VWS V14.01,2013-09-16 09:52:00,
2013-09-16 05:57:00,50.2,48.5,30.04,SW,236,0.0,2.2,94,0.00,,OVC110,0.00,VWS V14.01,2013-09-16 09:57:00,
2013-09-16 06:02:00,50.4,49.0,30.04,WSW,248,3.6,3.6,95,0.00,,BKN060,0.00,VWS V14.01,2013-09-16 10:02:00,
2013-09-16 06:07:00,50.4,49.0,30.04,SW,223,0.0,2.2,95,0.00,,BKN060,0.00,VWS V14.01,2013-09-16 10:07:00,
2013-09-16 06:12:00,50.4,49.0,30.04,SW,233,0.0,0.0,95,0.00,,BKN060,0.00,VWS V14.01,2013-09-16 10:12:00,
2013-09-16 06:17:00,50.4,49.0,30.07,SW,233,0.0,0.0,95,0.00,,BKN060,0.00,VWS V14.01,2013-09-16 10:17:00,
2013-09-16 06:22:00,50.2,48.8,30.07,SW,235,0.0,2.2,95,0.00,,BKN060,0.00,VWS V14.01,2013-09-16 10:22:00,
2013-09-16 06:27:00,50.4,49.0,30.07,SW,235,0.0,0.0,95,0.00,,BKN060,0.00,VWS V14.01,2013-09-16 10:27:00,
2013-09-16 06:32:00,50.2,48.8,30.07,SW,227,0.0,0.0,95,0.00,,BKN060,0.00,VWS V14.01,2013-09-16 10:32:00,
2013-09-16 06:37:00,50.0,48.6,30.07,SW,220,0.0,3.6,95,0.00,,BKN060,0.00,VWS V14.01,2013-09-16 10:37:00,
2013-09-16 06:42:00,50.2,48.8,30.07,SSW,207,2.2,2.2,95,0.00,,BKN060,0.00,VWS V14.01,2013-09-16 10:42:00,
2013-09-16 06:47:00,50.4,49.3,30.07,SW,234,2.2,2.7,96,0.00,,BKN060,0.00,VWS V14.01,2013-09-16 10:47:00,
2013-09-16 06:52:00,50.4,49.3,30.07,SW,219,0.0,0.0,96,0.00,,BKN060,0.00,VWS V14.01,2013-09-16 10:52:00,
2013-09-16 06:57:00,50.5,49.7,30.07,West,265,0.0,0.0,97,0.00,,BKN060,0.00,VWS V14.01,2013-09-16 10:57:00,
2013-09-16 07:02:00,50.4,49.5,30.07,SSW,200,2.2,2.7,97,0.00,,SCT100,0.00,VWS V14.01,2013-09-16 11:02:00,
2013-09-16 07:07:00,50.5,50.0,30.07,SW,236,0.0,2.2,98,0.00,,SCT100,0.00,VWS V14.01,2013-09-16 11:07:00,
2013-09-16 07:12:00,50.5,50.0,30.07,SW,232,0.0,2.7,98,0.00,,SCT100,0.00,VWS V14.01,2013-09-16 11:12:00,
2013-09-16 07:17:00,50.7,50.2,30.07,WSW,256,0.0,2.7,98,0.00,,SCT100,0.00,VWS V14.01,2013-09-16 11:17:00,
2013-09-16 07:22:00,50.9,50.6,30.07,WSW,246,0.0,3.6,99,0.00,,SCT100,0.00,VWS V14.01,2013-09-16 11:22:00,
2013-09-16 07:27:00,51.3,51.3,30.07,SW,233,0.0,0.0,100,0.00,,SCT100,0.00,VWS V14.01,2013-09-16 11:27:00,
2013-09-16 07:32:00,51.4,51.4,30.07,SW,221,2.2,2.2,100,0.00,,SCT100,0.00,VWS V14.01,2013-09-16 11:32:00,
2013-09-16 07:37:00,51.6,51.6,30.07,SSW,209,0.0,3.6,100,0.00,,SCT100,0.00,VWS V14.01,2013-09-16 11:37:00,
2013-09-16 07:42:00,51.6,51.6,30.07,SSW,209,0.0,0.0,100,0.00,,SCT100,0.00,VWS V14.01,2013-09-16 11:42:00,
2013-09-16 07:47:00,51.6,51.6,30.10,SSW,209,0.0,0.0,100,0.00,,SCT100,0.00,VWS V14.01,2013-09-16 11:47:00,
2013-09-16 07:52:00,52.0,52.0,30.10,SW,227,0.0,2.7,100,0.00,,SCT100,0.00,VWS V14.01,2013-09-16 11:52:00,
2013-09-16 07:57:00,52.2,52.2,30.10,SW,216,2.7,3.1,100,0.00,,SCT100,0.00,VWS V14.01,2013-09-16 11:57:00,
2013-09-16 08:02:00,52.5,52.5,30.10,WSW,239,3.6,3.6,100,0.00,,BKN085,0.00,VWS V14.01,2013-09-16 12:02:00,
2013-09-16 08:07:00,52.9,52.9,30.10,WSW,256,3.6,4.0,100,0.00,,BKN085,0.00,VWS V14.01,2013-09-16 12:07:00,
2013-09-16 08:12:00,53.2,53.2,30.10,SW,234,0.0,3.1,100,0.00,,BKN085,0.00,VWS V14.01,2013-09-16 12:12:00,
2013-09-16 08:17:00,53.4,53.4,30.10,WNW,285,3.1,3.1,100,0.00,,BKN085,0.00,VWS V14.01,2013-09-16 12:17:00,
2013-09-16 08:22:00,53.4,53.4,30.10,WSW,250,0.0,3.6,100,0.00,,BKN085,0.00,VWS V14.01,2013-09-16 12:22:00,
2013-09-16 08:27:00,53.8,53.8,30.10,WNW,301,0.0,5.4,100,0.00,,BKN085,0.00,VWS V14.01,2013-09-16 12:27:00,
2013-09-16 08:32:00,54.0,54.0,30.10,WSW,244,0.0,3.6,100,0.00,,BKN085,0.00,VWS V14.01,2013-09-16 12:32:00,
2013-09-16 08:37:00,54.1,54.1,30.10,West,279,0.0,3.6,100,0.00,,BKN080,0.00,VWS V14.01,2013-09-16 12:37:00,
2013-09-16 08:42:00,54.5,54.5,30.10,SSW,195,0.0,4.0,100,0.00,,BKN080,0.00,VWS V14.01,2013-09-16 12:42:00,
2013-09-16 08:47:00,54.5,54.5,30.10,WNW,291,3.6,8.1,100,0.00,,BKN080,0.00,VWS V14.01,2013-09-16 12:47:00,
2013-09-16 08:52:00,54.7,54.7,30.10,West,279,0.0,5.8,100,0.00,,BKN080,0.00,VWS V14.01,2013-09-16 12:52:00,
2013-09-16 08:57:00,54.9,54.9,30.10,WNW,299,0.0,3.1,100,0.00,,BKN080,0.00,VWS V14.01,2013-09-16 12:57:00,
2013-09-16 09:02:00,55.0,55.0,30.10,WNW,284,0.0,2.7,100,0.00,,BKN080,0.00,VWS V14.01,2013-09-16 13:02:00,
2013-09-16 09:07:00,55.2,55.2,30.10,WSW,253,0.0,0.0,100,0.00,,-RA,0.00,VWS V14.01,2013-09-16 13:07:00,
2013-09-16 09:13:00,55.4,55.4,30.10,WNW,293,5.8,5.8,100,0.00,,-RA,0.00,VWS V14.01,2013-09-16 13:13:00,
2013-09-16 09:18:00,55.4,55.4,30.10,WNW,302,0.0,5.8,100,0.00,,-RA,0.00,VWS V14.01,2013-09-16 13:18:00,
2013-09-16 09:23:00,55.4,55.4,30.10,NW,321,3.6,5.4,100,0.00,,-RA,0.00,VWS V14.01,2013-09-16 13:23:00,
2013-09-16 09:28:00,55.4,55.4,30.10,NW,305,3.6,5.4,100,0.00,,-RA,0.00,VWS V14.01,2013-09-16 13:28:00,
2013-09-16 09:33:00,55.4,55.4,30.10,WNW,291,0.0,5.8,100,0.00,,-RA,0.00,VWS V14.01,2013-09-16 13:33:00,
2013-09-16 09:38:00,55.4,55.4,30.10,WNW,288,5.4,5.4,100,0.00,,-RA,0.00,VWS V14.01,2013-09-16 13:38:00,
2013-09-16 09:43:00,55.4,55.4,30.13,NNW,338,0.0,0.0,100,0.00,,-RA,0.00,VWS V14.01,2013-09-16 13:43:00,
2013-09-16 09:48:00,55.2,55.2,30.13,NNW,328,3.1,3.1,100,0.00,,-RA,0.00,VWS V14.01,2013-09-16 13:48:00,
2013-09-16 09:53:00,55.0,55.0,30.13,NNW,328,8.1,8.1,100,0.00,,-RA,0.00,VWS V14.01,2013-09-16 13:53:00,
2013-09-16 09:58:00,54.9,54.9,30.13,NNW,337,8.1,8.1,100,0.00,,-RA,0.00,VWS V14.01,2013-09-16 13:58:00,
2013-09-16 10:03:00,54.7,54.4,30.13,North,357,8.7,8.7,99,0.00,,-RA,0.00,VWS V14.01,2013-09-16 14:03:00,
2013-09-16 10:08:00,54.5,54.2,30.13,NNE,23,3.1,5.4,99,0.00,,-RA,0.00,VWS V14.01,2013-09-16 14:08:00,
2013-09-16 10:13:00,54.5,54.5,30.13,North,3,3.1,7.2,100,0.00,,-RA,0.00,VWS V14.01,2013-09-16 14:13:00,
2013-09-16 10:18:00,54.3,54.3,30.13,North,0,8.1,8.7,100,0.00,,-RA,0.00,VWS V14.01,2013-09-16 14:18:00,
2013-09-16 10:23:00,54.1,54.1,30.13,North,0,8.1,8.3,100,0.04,,-RA,0.04,VWS V14.01,2013-09-16 14:23:00,
2013-09-16 10:28:00,53.8,53.8,30.13,North,353,4.0,4.0,100,0.04,,-RA,0.04,VWS V14.01,2013-09-16 14:28:00,
2013-09-16 10:33:00,53.6,53.6,30.13,North,7,9.6,9.6,100,0.04,,-RA,0.04,VWS V14.01,2013-09-16 14:33:00,
2013-09-16 10:38:00,53.4,53.4,30.13,NNE,20,5.4,5.4,100,0.04,,-RA,0.04,VWS V14.01,2013-09-16 14:38:00,
2013-09-16 10:43:00,53.1,53.1,30.16,North,0,10.1,10.5,100,0.04,,-RA,0.04,VWS V14.01,2013-09-16 14:43:00,
2013-09-16 10:48:00,52.7,52.4,30.16,NNE,17,7.2,12.8,99,0.04,,-RA,0.04,VWS V14.01,2013-09-16 14:48:00,
2013-09-16 10:53:00,52.5,52.0,30.16,ENE,71,6.3,11.0,98,0.04,,-RA,0.04,VWS V14.01,2013-09-16 14:53:00,
2013-09-16 10:58:00,52.3,51.8,30.16,North,9,7.2,8.1,98,0.04,,-RA,0.04,VWS V14.01,2013-09-16 14:58:00,
2013-09-16 11:03:00,52.5,52.0,30.16,North,357,8.1,8.1,98,0.04,,-RA,0.04,VWS V14.01,2013-09-16 15:03:00,
2013-09-16 11:08:00,52.3,51.8,30.16,North,0,5.4,11.0,98,0.04,,-RA,0.04,VWS V14.01,2013-09-16 15:08:00,
2013-09-16 11:13:00,52.2,51.6,30.16,North,357,7.6,10.5,98,0.04,,-RA,0.04,VWS V14.01,2013-09-16 15:13:00,
2013-09-16 11:18:00,52.0,51.4,30.16,North,3,8.1,11.9,98,0.04,,-RA,0.04,VWS V14.01,2013-09-16 15:18:00,
2013-09-16 11:23:00,52.0,51.4,30.16,NE,35,5.8,8.1,98,0.00,,-RA,0.04,VWS V14.01,2013-09-16 15:23:00,
2013-09-16 11:28:00,51.8,51.3,30.16,NE,37,7.6,9.2,98,0.00,,-RA,0.04,VWS V14.01,2013-09-16 15:28:00,
2013-09-16 11:33:00,51.8,51.0,30.16,North,5,10.1,10.5,97,0.00,,-RA,0.04,VWS V14.01,2013-09-16 15:33:00,
2013-09-16 11:38:00,51.8,51.3,30.16,North,3,4.0,10.5,98,0.00,,-RA,0.04,VWS V14.01,2013-09-16 15:38:00,
2013-09-16 11:43:00,51.6,51.1,30.19,NNE,23,5.4,8.1,98,0.00,,-RA,0.04,VWS V14.01,2013-09-16 15:43:00,
2013-09-16 11:48:00,51.6,51.1,30.19,North,0,6.3,8.7,98,0.00,,-RA,0.04,VWS V14.01,2013-09-16 15:48:00,
2013-09-16 11:53:00,51.3,50.7,30.19,NNE,21,8.7,10.5,98,0.00,,-RA,0.04,VWS V14.01,2013-09-16 15:53:00,
2013-09-16 11:58:00,51.3,50.4,30.19,NNE,12,5.4,10.5,97,0.00,,-RA,0.04,VWS V14.01,2013-09-16 15:58:00,
2013-09-16 12:03:00,51.3,50.4,30.19,North,353,8.3,8.7,97,0.00,,-RA,0.04,VWS V14.01,2013-09-16 16:03:00,
2013-09-16 12:08:00,51.3,50.4,30.19,NE,34,4.9,9.6,97,0.00,,-RA,0.04,VWS V14.01,2013-09-16 16:08:00,
2013-09-16 12:14:00,51.1,50.5,30.19,NNE,21,7.6,8.7,98,0.00,,-RA,0.04,VWS V14.01,2013-09-16 16:14:00,
2013-09-16 12:19:00,50.9,50.1,30.19,North,9,3.6,10.5,97,0.00,,-RA,0.04,VWS V14.01,2013-09-16 16:19:00,
2013-09-16 12:24:00,51.3,51.0,30.19,North,7,5.4,8.7,99,0.00,,-RA,0.04,VWS V14.01,2013-09-16 16:24:00,
2013-09-16 12:29:00,51.4,51.2,30.19,North,3,6.3,8.1,99,0.00,,-RA,0.04,VWS V14.01,2013-09-16 16:29:00,
2013-09-16 12:34:00,51.1,50.8,30.19,North,3,5.4,10.1,99,0.00,,-RA,0.04,VWS V14.01,2013-09-16 16:34:00,
2013-09-16 12:39:00,51.1,50.8,30.19,North,353,8.3,8.3,99,0.00,,-RA,0.04,VWS V14.01,2013-09-16 16:39:00,
2013-09-16 12:44:00,50.7,50.2,30.19,North,0,8.1,11.0,98,0.00,,-RA,0.04,VWS V14.01,2013-09-16 16:44:00,
2013-09-16 12:49:00,50.7,50.2,30.19,NE,35,10.5,10.5,98,0.00,,-RA,0.04,VWS V14.01,2013-09-16 16:49:00,
2013-09-16 12:54:00,50.2,49.4,30.19,North,349,13.2,14.5,97,0.00,,-RA,0.04,VWS V14.01,2013-09-16 16:54:00,
2013-09-16 12:59:00,50.4,49.5,30.19,North,5,10.1,10.1,97,0.00,,-RA,0.04,VWS V14.01,2013-09-16 16:59:00,
2013-09-16 13:04:00,50.7,50.2,30.19,North,8,3.1,7.6,98,0.00,,OVC014,0.04,VWS V14.01,2013-09-16 17:04:00,
2013-09-16 13:09:00,50.5,50.0,30.19,North,11,3.6,8.1,98,0.00,,OVC014,0.04,VWS V14.01,2013-09-16 17:09:00,
2013-09-16 13:14:00,50.7,50.2,30.19,NE,52,5.4,8.1,98,0.00,,OVC014,0.04,VWS V14.01,2013-09-16 17:14:00,
2013-09-16 13:19:00,50.4,49.5,30.19,NNE,30,4.9,9.6,97,0.00,,OVC014,0.04,VWS V14.01,2013-09-16 17:19:00,
2013-09-16 13:24:00,50.4,49.5,30.19,North,10,4.0,8.3,97,0.00,,OVC014,0.04,VWS V14.01,2013-09-16 17:24:00,
2013-09-16 13:29:00,50.2,49.1,30.19,North,2,4.0,11.0,96,0.00,,OVC014,0.04,VWS V14.01,2013-09-16 17:29:00,
2013-09-16 13:34:00,50.4,49.3,30.19,NNE,31,4.0,8.1,96,0.00,,OVC014,0.04,VWS V14.01,2013-09-16 17:34:00,
2013-09-16 13:39:00,50.2,49.1,30.19,North,10,3.1,6.3,96,0.00,,OVC014,0.04,VWS V14.01,2013-09-16 17:39:00,
2013-09-16 13:44:00,50.4,49.3,30.22,NNE,32,5.8,7.6,96,0.00,,OVC014,0.04,VWS V14.01,2013-09-16 17:44:00,
2013-09-16 13:49:00,50.2,48.8,30.22,NNE,33,6.3,9.2,95,0.00,,OVC014,0.04,VWS V14.01,2013-09-16 17:49:00,
2013-09-16 13:54:00,50.2,48.8,30.22,NNE,17,0.0,8.3,95,0.00,,OVC014,0.04,VWS V14.01,2013-09-16 17:54:00,
2013-09-16 13:59:00,50.2,48.8,30.22,NNE,14,7.6,8.7,95,0.00,,OVC014,0.04,VWS V14.01,2013-09-16 17:59:00,
2013-09-16 14:04:00,50.0,48.6,30.22,North,4,3.6,8.7,95,0.00,,OVC014,0.04,VWS V14.01,2013-09-16 18:04:00,
2013-09-16 14:09:00,50.0,48.6,30.22,NNE,22,3.6,6.3,95,0.00,,OVC014,0.04,VWS V14.01,2013-09-16 18:09:00,
2013-09-16 14:14:00,50.2,48.8,30.22,NNE,29,8.1,8.1,95,0.00,,OVC014,0.04,VWS V14.01,2013-09-16 18:14:00,
2013-09-16 14:19:00,50.2,48.8,30.22,North,0,4.0,5.8,95,0.00,,OVC014,0.04,VWS V14.01,2013-09-16 18:19:00,
2013-09-16 14:24:00,50.2,48.8,30.22,North,9,5.4,5.8,95,0.00,,OVC014,0.04,VWS V14.01,2013-09-16 18:24:00,
2013-09-16 14:29:00,50.2,48.8,30.22,North,357,4.0,8.1,95,0.00,,OVC014,0.04,VWS V14.01,2013-09-16 18:29:00,
2013-09-16 14:34:00,50.2,48.8,30.22,North,7,3.1,4.0,95,0.00,,OVC014,0.04,VWS V14.01,2013-09-16 18:34:00,
2013-09-16 14:39:00,50.0,48.3,30.22,NE,40,5.8,7.6,94,0.00,,OVC014,0.04,VWS V14.01,2013-09-16 18:39:00,
2013-09-16 14:44:00,50.0,48.1,30.22,NE,44,5.8,10.5,93,0.00,,OVC014,0.04,VWS V14.01,2013-09-16 18:44:00,
2013-09-16 14:49:00,50.0,48.1,30.22,North,1,5.4,8.1,93,0.00,,OVC014,0.04,VWS V14.01,2013-09-16 18:49:00,
2013-09-16 14:54:00,50.0,48.1,30.22,North,0,7.6,7.6,93,0.00,,OVC014,0.04,VWS V14.01,2013-09-16 18:54:00,
2013-09-16 14:59:00,50.0,47.8,30.22,North,353,5.8,10.1,92,0.00,,OVC014,0.04,VWS V14.01,2013-09-16 18:59:00,
2013-09-16 15:04:00,50.2,48.0,30.22,North,10,3.6,7.6,92,0.00,,OVC013,0.04,VWS V14.01,2013-09-16 19:04:00,
2013-09-16 15:09:00,50.0,47.5,30.22,North,0,5.4,7.6,91,0.00,,OVC013,0.04,VWS V14.01,2013-09-16 19:09:00,
2013-09-16 15:14:00,50.2,47.7,30.22,North,3,5.4,6.3,91,0.00,,OVC013,0.04,VWS V14.01,2013-09-16 19:14:00,
2013-09-16 15:20:00,50.0,47.2,30.22,NNE,21,4.0,8.1,90,0.00,,OVC013,0.04,VWS V14.01,2013-09-16 19:20:00,
2013-09-16 15:25:00,50.2,47.4,30.22,North,0,3.6,6.3,90,0.00,,OVC013,0.04,VWS V14.01,2013-09-16 19:25:00,
2013-09-16 15:30:00,50.2,47.4,30.22,North,0,5.4,5.8,90,0.00,,OVC013,0.04,VWS V14.01,2013-09-16 19:30:00,
2013-09-16 15:35:00,50.2,47.4,30.22,North,353,5.8,8.1,90,0.00,,OVC013,0.04,VWS V14.01,2013-09-16 19:35:00,
2013-09-16 15:40:00,50.4,47.5,30.22,North,7,3.6,8.3,90,0.00,,OVC013,0.04,VWS V14.01,2013-09-16 19:40:00,
2013-09-16 15:45:00,50.0,46.9,30.22,North,353,5.8,8.3,89,0.00,,OVC013,0.04,VWS V14.01,2013-09-16 19:45:00,
2013-09-16 15:50:00,50.2,47.1,30.22,NNE,27,3.1,6.3,89,0.00,,OVC013,0.04,VWS V14.01,2013-09-16 19:50:00,
2013-09-16 15:55:00,50.2,47.1,30.22,North,6,2.7,5.8,89,0.00,,OVC013,0.04,VWS V14.01,2013-09-16 19:55:00,
2013-09-16 16:00:00,50.2,46.8,30.22,North,10,2.7,6.3,88,0.00,,OVC013,0.04,VWS V14.01,2013-09-16 20:00:00,
2013-09-16 16:05:00,50.0,46.3,30.22,NE,40,3.1,8.1,87,0.00,,OVC013,0.04,VWS V14.01,2013-09-16 20:05:00,
2013-09-16 16:10:00,50.0,46.3,30.22,North,3,2.7,5.8,87,0.00,,OVC013,0.04,VWS V14.01,2013-09-16 20:10:00,
2013-09-16 16:15:00,50.2,46.8,30.22,North,357,3.1,3.1,88,0.00,,OVC013,0.04,VWS V14.01,2013-09-16 20:15:00,
2013-09-16 16:20:00,50.2,46.8,30.22,North,6,4.0,4.0,88,0.00,,OVC013,0.04,VWS V14.01,2013-09-16 20:20:00,
2013-09-16 16:25:00,50.2,46.8,30.22,North,8,2.7,2.7,88,0.00,,OVC013,0.04,VWS V14.01,2013-09-16 20:25:00,
2013-09-16 16:30:00,50.4,47.0,30.22,North,9,2.7,4.0,88,0.00,,OVC013,0.04,VWS V14.01,2013-09-16 20:30:00,
2013-09-16 16:35:00,50.2,46.5,30.22,NNE,27,2.7,6.3,87,0.00,,OVC013,0.04,VWS V14.01,2013-09-16 20:35:00,
2013-09-16 16:40:00,50.2,46.5,30.22,NE,51,4.0,6.3,87,0.00,,OVC013,0.04,VWS V14.01,2013-09-16 20:40:00,
2013-09-16 16:45:00,50.4,46.6,30.22,North,0,4.0,5.4,87,0.00,,OVC013,0.04,VWS V14.01,2013-09-16 20:45:00,
2013-09-16 16:50:00,50.2,46.2,30.22,North,357,3.6,6.3,86,0.00,,OVC013,0.04,VWS V14.01,2013-09-16 20:50:00,
2013-09-16 16:55:00,50.2,45.8,30.22,North,7,5.8,6.7,85,0.00,,OVC013,0.04,VWS V14.01,2013-09-16 20:55:00,
2013-09-16 17:00:00,50.2,46.2,30.25,NNE,15,4.0,5.4,86,0.00,,OVC013,0.04,VWS V14.01,2013-09-16 21:00:00,
2013-09-16 17:05:00,50.2,46.2,30.25,NNW,340,2.7,4.0,86,0.00,,OVC016,0.04,VWS V14.01,2013-09-16 21:05:00,
2013-09-16 17:10:00,50.2,46.2,30.25,North,3,5.4,5.4,86,0.00,,OVC016,0.04,VWS V14.01,2013-09-16 21:10:00,
2013-09-16 17:15:00,50.2,45.8,30.25,North,4,2.7,3.1,85,0.00,,OVC016,0.04,VWS V14.01,2013-09-16 21:15:00,
2013-09-16 17:20:00,50.2,45.8,30.25,NNW,344,4.0,4.0,85,0.00,,OVC016,0.04,VWS V14.01,2013-09-16 21:20:00,
2013-09-16 17:25:00,50.4,46.0,30.25,North,2,2.2,3.1,85,0.00,,OVC016,0.04,VWS V14.01,2013-09-16 21:25:00,
2013-09-16 17:30:00,50.2,45.8,30.25,North,4,4.0,5.4,85,0.00,,OVC016,0.04,VWS V14.01,2013-09-16 21:30:00,
2013-09-16 17:35:00,50.4,45.7,30.25,NNE,12,0.0,4.9,84,0.00,,OVC016,0.04,VWS V14.01,2013-09-16 21:35:00,
2013-09-16 17:40:00,50.4,45.7,30.25,North,0,4.0,5.4,84,0.00,,OVC016,0.04,VWS V14.01,2013-09-16 21:40:00,
2013-09-16 17:45:00,50.2,45.2,30.25,North,9,2.7,5.8,83,0.00,,OVC016,0.04,VWS V14.01,2013-09-16 21:45:00,
2013-09-16 17:50:00,50.4,45.1,30.25,North,1,2.7,4.0,82,0.00,,OVC016,0.04,VWS V14.01,2013-09-16 21:50:00,
2013-09-16 17:55:00,50.4,45.4,30.25,North,10,3.1,6.3,83,0.00,,OVC016,0.04,VWS V14.01,2013-09-16 21:55:00,
2013-09-16 18:00:00,50.4,45.7,30.25,North,353,0.0,4.9,84,0.00,,OVC016,0.04,VWS V14.01,2013-09-16 22:00:00,
2013-09-16 18:05:00,50.4,45.7,30.25,NNW,346,0.0,4.0,84,0.00,,BKN023,0.04,VWS V14.01,2013-09-16 22:05:00,
2013-09-16 18:10:00,50.5,45.9,30.25,NW,316,4.0,6.3,84,0.00,,BKN023,0.04,VWS V14.01,2013-09-16 22:10:00,
2013-09-16 18:15:00,50.5,45.9,30.25,North,2,0.0,3.6,84,0.00,,BKN023,0.04,VWS V14.01,2013-09-16 22:15:00,
2013-09-16 18:20:00,50.5,45.9,30.25,North,0,0.0,2.2,84,0.00,,BKN023,0.04,VWS V14.01,2013-09-16 22:20:00,
2013-09-16 18:25:00,50.4,45.7,30.25,North,357,0.0,4.0,84,0.00,,BKN023,0.04,VWS V14.01,2013-09-16 22:25:00,
2013-09-16 18:30:00,50.4,45.7,30.25,NNE,13,2.2,2.2,84,0.00,,BKN023,0.04,VWS V14.01,2013-09-16 22:30:00,
2013-09-16 18:36:00,50.2,45.5,30.25,NNE,14,0.0,2.7,84,0.00,,BKN023,0.04,VWS V14.01,2013-09-16 22:36:00,
2013-09-16 18:41:00,50.2,45.2,30.25,North,357,0.0,0.0,83,0.00,,BKN023,0.04,VWS V14.01,2013-09-16 22:41:00,
2013-09-16 18:46:00,49.8,45.2,30.25,North,357,0.0,0.0,84,0.00,,BKN023,0.04,VWS V14.01,2013-09-16 22:46:00,
2013-09-16 18:51:00,49.6,45.0,30.25,North,357,0.0,0.0,84,0.00,,BKN023,0.04,VWS V14.01,2013-09-16 22:51:00,
2013-09-16 18:56:00,49.3,44.7,30.25,North,357,0.0,0.0,84,0.00,,BKN023,0.04,VWS V14.01,2013-09-16 22:56:00,
2013-09-16 19:01:00,49.1,44.5,30.28,North,357,0.0,0.0,84,0.00,,SCT024,0.04,VWS V14.01,2013-09-16 23:01:00,
2013-09-16 19:06:00,48.6,44.0,30.28,North,357,0.0,0.0,84,0.00,,SCT024,0.04,VWS V14.01,2013-09-16 23:06:00,
2013-09-16 19:11:00,48.6,44.3,30.28,North,357,0.0,0.0,85,0.00,,SCT024,0.04,VWS V14.01,2013-09-16 23:11:00,
2013-09-16 19:16:00,48.2,43.6,30.28,North,357,0.0,0.0,84,0.00,,SCT024,0.04,VWS V14.01,2013-09-16 23:16:00,
2013-09-16 19:21:00,48.0,43.7,30.28,North,357,0.0,0.0,85,0.00,,SCT024,0.04,VWS V14.01,2013-09-16 23:21:00,
2013-09-16 19:26:00,47.8,43.6,30.28,North,357,0.0,0.0,85,0.00,,SCT024,0.04,VWS V14.01,2013-09-16 23:26:00,
2013-09-16 19:31:00,47.3,43.0,30.28,North,357,0.0,0.0,85,0.00,,SCT024,0.04,VWS V14.01,2013-09-16 23:31:00,
2013-09-16 19:36:00,47.3,43.0,30.28,North,357,0.0,0.0,85,0.00,,SCT024,0.04,VWS V14.01,2013-09-16 23:36:00,
2013-09-16 19:41:00,46.9,42.4,30.28,North,357,0.0,0.0,84,0.00,,SCT024,0.04,VWS V14.01,2013-09-16 23:41:00,
2013-09-16 19:46:00,46.9,42.0,30.28,North,357,0.0,0.0,83,0.00,,SCT024,0.04,VWS V14.01,2013-09-16 23:46:00,
2013-09-16 19:51:00,46.2,41.3,30.28,North,357,0.0,0.0,83,0.00,,SCT024,0.04,VWS V14.01,2013-09-16 23:51:00,
2013-09-16 19:56:00,46.2,41.7,30.28,North,357,0.0,0.0,84,0.00,,SCT024,0.04,VWS V14.01,2013-09-16 23:56:00,
2013-09-16 20:01:00,45.9,41.0,30.28,North,357,0.0,0.0,83,0.00,,FEW024,0.04,VWS V14.01,2013-09-17 00:01:00,
2013-09-16 20:06:00,45.9,41.0,30.28,North,357,0.0,0.0,83,0.00,,FEW024,0.04,VWS V14.01,2013-09-17 00:06:00,
2013-09-16 20:11:00,45.9,41.0,30.28,North,357,0.0,0.0,83,0.00,,FEW024,0.04,VWS V14.01,2013-09-17 00:11:00,
2013-09-16 20:16:00,45.7,40.8,30.28,North,357,0.0,0.0,83,0.00,,FEW024,0.04,VWS V14.01,2013-09-17 00:16:00,
2013-09-16 20:21:00,45.5,40.7,30.28,North,357,0.0,0.0,83,0.00,,FEW024,0.04,VWS V14.01,2013-09-17 00:21:00,
2013-09-16 20:26:00,45.1,40.3,30.28,North,357,0.0,0.0,83,0.00,,FEW024,0.04,VWS V14.01,2013-09-17 00:26:00,
2013-09-16 20:31:00,45.0,39.8,30.28,North,357,0.0,0.0,82,0.00,,FEW024,0.04,VWS V14.01,2013-09-17 00:31:00,
2013-09-16 20:36:00,44.4,39.0,30.28,North,357,0.0,0.0,81,0.00,,FEW024,0.04,VWS V14.01,2013-09-17 00:36:00,
2013-09-16 20:41:00,44.4,39.0,30.28,North,357,0.0,0.0,81,0.00,,FEW024,0.04,VWS V14.01,2013-09-17 00:41:00,
2013-09-16 20:46:00,44.2,38.8,30.31,North,357,0.0,0.0,81,0.00,,FEW024,0.04,VWS V14.01,2013-09-17 00:46:00,
2013-09-16 20:51:00,44.6,39.5,30.31,North,357,0.0,0.0,82,0.00,,FEW024,0.04,VWS V14.01,2013-09-17 00:51:00,
2013-09-16 20:56:00,44.6,39.8,30.31,North,357,0.0,0.0,83,0.00,,FEW024,0.04,VWS V14.01,2013-09-17 00:56:00,
2013-09-16 21:01:00,44.4,39.6,30.31,North,357,0.0,0.0,83,0.00,,FEW024,0.04,VWS V14.01,2013-09-17 01:01:00,
2013-09-16 21:06:00,44.4,39.9,30.31,North,357,0.0,0.0,84,0.00,,FEW024,0.04,VWS V14.01,2013-09-17 01:06:00,
2013-09-16 21:11:00,44.6,40.1,30.31,North,357,0.0,0.0,84,0.00,,FEW024,0.04,VWS V14.01,2013-09-17 01:11:00,
2013-09-16 21:16:00,44.2,39.7,30.31,North,357,0.0,0.0,84,0.00,,FEW024,0.04,VWS V14.01,2013-09-17 01:16:00,
2013-09-16 21:22:00,44.1,39.5,30.31,North,357,0.0,0.0,84,0.00,,FEW024,0.04,VWS V14.01,2013-09-17 01:22:00,
2013-09-16 21:27:00,44.1,39.5,30.31,North,357,0.0,0.0,84,0.00,,FEW024,0.04,VWS V14.01,2013-09-17 01:27:00,
2013-09-16 21:32:00,44.1,39.5,30.31,North,357,0.0,0.0,84,0.00,,FEW024,0.04,VWS V14.01,2013-09-17 01:32:00,
2013-09-16 21:37:00,43.5,39.0,30.31,North,357,0.0,0.0,84,0.00,,FEW024,0.04,VWS V14.01,2013-09-17 01:37:00,
2013-09-16 21:42:00,43.7,39.2,30.31,North,357,0.0,0.0,84,0.00,,FEW024,0.04,VWS V14.01,2013-09-17 01:42:00,
2013-09-16 21:47:00,43.7,39.2,30.31,North,357,0.0,0.0,84,0.00,,FEW024,0.04,VWS V14.01,2013-09-17 01:47:00,
2013-09-16 21:52:00,43.7,39.2,30.31,North,357,0.0,0.0,84,0.00,,FEW024,0.04,VWS V14.01,2013-09-17 01:52:00,
2013-09-16 21:57:00,43.7,39.2,30.31,North,357,0.0,0.0,84,0.00,,FEW024,0.04,VWS V14.01,2013-09-17 01:57:00,
2013-09-16 22:02:00,43.7,39.2,30.31,North,357,0.0,0.0,84,0.00,,CLR,0.04,VWS V14.01,2013-09-17 02:02:00,
2013-09-16 22:07:00,43.7,39.2,30.31,North,357,0.0,0.0,84,0.00,,CLR,0.04,VWS V14.01,2013-09-17 02:07:00,
2013-09-16 22:12:00,43.7,39.2,30.31,North,357,0.0,0.0,84,0.00,,CLR,0.04,VWS V14.01,2013-09-17 02:12:00,
2013-09-16 22:17:00,43.7,39.2,30.31,North,357,0.0,0.0,84,0.00,,CLR,0.04,VWS V14.01,2013-09-17 02:17:00,
2013-09-16 22:22:00,43.7,39.2,30.31,North,357,0.0,0.0,84,0.00,,CLR,0.04,VWS V14.01,2013-09-17 02:22:00,
2013-09-16 22:27:00,43.7,39.2,30.31,North,357,0.0,0.0,84,0.00,,CLR,0.04,VWS V14.01,2013-09-17 02:27:00,
2013-09-16 22:32:00,43.7,39.2,30.31,North,357,0.0,0.0,84,0.00,,CLR,0.04,VWS V14.01,2013-09-17 02:32:00,
2013-09-16 22:37:00,42.6,38.7,30.31,North,357,0.0,0.0,86,0.00,,CLR,0.04,VWS V14.01,2013-09-17 02:37:00,
2013-09-16 22:42:00,42.6,39.0,30.31,North,357,0.0,0.0,87,0.00,,CLR,0.04,VWS V14.01,2013-09-17 02:42:00,
2013-09-16 22:47:00,42.4,38.6,30.31,North,357,0.0,0.0,86,0.00,,CLR,0.04,VWS V14.01,2013-09-17 02:47:00,
2013-09-16 22:52:00,42.8,39.2,30.31,North,357,0.0,0.0,87,0.00,,CLR,0.04,VWS V14.01,2013-09-17 02:52:00,
2013-09-16 22:57:00,42.8,39.5,30.31,North,357,0.0,0.0,88,0.00,,CLR,0.04,VWS V14.01,2013-09-17 02:57:00,
2013-09-16 23:02:00,43.0,40.0,30.31,North,357,0.0,0.0,89,0.00,,CLR,0.04,VWS V14.01,2013-09-17 03:02:00,
2013-09-16 23:07:00,43.2,40.4,30.31,North,357,0.0,0.0,90,0.00,,CLR,0.04,VWS V14.01,2013-09-17 03:07:00,
2013-09-16 23:12:00,43.2,40.4,30.31,SW,224,0.0,2.2,90,0.00,,CLR,0.04,VWS V14.01,2013-09-17 03:12:00,
2013-09-16 23:17:00,42.8,40.4,30.31,SW,230,0.0,3.6,91,0.00,,CLR,0.04,VWS V14.01,2013-09-17 03:17:00,
2013-09-16 23:22:00,43.2,40.7,30.31,SW,214,0.0,0.0,91,0.00,,CLR,0.04,VWS V14.01,2013-09-17 03:22:00,
2013-09-16 23:27:00,42.8,40.4,30.31,SW,214,0.0,0.0,91,0.00,,CLR,0.04,VWS V14.01,2013-09-17 03:27:00,
2013-09-16 23:32:00,42.8,40.4,30.31,SW,214,0.0,0.0,91,0.00,,CLR,0.04,VWS V14.01,2013-09-17 03:32:00,
2013-09-16 23:38:00,42.6,40.2,30.31,SW,214,0.0,0.0,91,0.00,,CLR,0.04,VWS V14.01,2013-09-17 03:38:00,
2013-09-16 23:43:00,42.6,40.2,30.31,SW,214,0.0,3.1,91,0.00,,CLR,0.04,VWS V14.01,2013-09-17 03:43:00,
2013-09-16 23:48:00,43.0,40.5,30.31,SW,214,0.0,0.0,91,0.00,,CLR,0.04,VWS V14.01,2013-09-17 03:48:00,
2013-09-16 23:53:00,43.0,40.8,30.31,SW,214,2.7,2.7,92,0.00,,CLR,0.04,VWS V14.01,2013-09-17 03:53:00,
2013-09-16 23:58:00,43.0,40.5,30.31,SW,214,0.0,0.0,91,0.00,,CLR,0.04,VWS V14.01,2013-09-17 03:58:00,